GFSNW_con_lsi_009.txt.gz
Lid_Strength_Index
-1 -1 -1 -1 -1 -0 1 5 9 0 -0 9 8 11 8 7 8 6 7 8 9 9 7 8 8 8 7 5 5 7 6 7 10 8 6 5 6 7 7 11 12 10 10 10
-1 -1 -1 -1 -1 0 2 6 5 -0 1 12 10 7 7 7 7 7 8 9 8 7 8 10 7 7 5 5 5 7 6 8 11 10 8 6 8 7 7 7 8 11 12 10
-1 -1 -1 -1 -0 0 1 5 10 6 5 6 9 9 8 8 5 6 7 8 8 9 9 7 8 7 6 5 5 5 6 7 10 12 10 8 9 8 7 8 11 10 10 9
-1 -1 -1 -1 -1 -0 1 4 7 5 10 9 8 8 8 9 8 6 6 8 8 9 9 8 8 7 6 5 5 5 6 10 8 8 7 7 8 8 8 8 8 10 9 8
-1 -1 -1 -1 -1 -1 2 7 6 3 7 6 8 8 8 9 8 8 8 8 8 8 9 8 9 8 7 7 6 6 6 10 8 9 7 7 8 8 7 8 7 8 8 8
-1 -1 -1 -1 -1 -0 2 1 1 5 7 8 9 9 8 8 7 6 6 7 7 9 8 8 6 6 6 6 6 7 7 9 10 11 8 8 10 8 8 7 7 7 9 7
-1 -1 -1 -1 -1 -0 1 1 2 7 10 9 9 7 7 8 7 7 6 5 6 6 5 6 5 6 6 6 6 5 8 9 8 11 9 14 8 5 6 7 6 6 6 5
-1 -1 -1 -1 -1 -1 1 1 3 6 9 7 7 7 7 6 6 7 6 5 4 4 7 9 10 9 9 7 6 6 6 8 10 12 12 9 8 7 7 7 8 5 6 5
-1 -1 -1 -1 -1 -1 -0 0 0 4 8 7 5 7 6 8 8 7 6 3 2 5 8 10 15 14 10 10 8 6 6 7 10 10 13 14 8 6 4 5 9 5 5 5
-1 -1 -1 -1 -1 -1 -0 1 -1 3 7 4 5 8 9 6 7 8 6 5 5 5 9 14 14 13 8 12 11 10 10 10 11 11 12 9 6 5 4 10 8 5 4 4
-1 -1 -1 -1 -1 -1 -0 1 -1 2 5 4 3 4 6 6 7 10 6 6 6 7 11 12 13 12 10 10 8 9 10 11 11 10 11 12 5 5 8 5 4 4 4 4
-1 -1 -1 -1 -1 -1 -1 2 -1 -1 4 4 1 2 2 2 4 6 6 7 7 5 7 9 10 12 10 11 12 7 10 8 9 8 9 5 4 4 4 3 4 4 4 3
-1 -1 -1 -1 -1 -1 -1 1 0 1 4 4 3 4 1 0 1 1 7 6 5 5 4 7 7 11 9 12 11 9 7 5 8 8 7 6 5 4 3 3 3 3 3 3
-1 -1 -1 -1 -1 -1 -1 1 -0 1 3 7 5 1 2 0 0 1 1 3 3 3 4 7 8 9 8 10 9 9 8 7 7 7 6 5 4 4 4 3 3 3 3 3
-0 -0 -0 -1 -1 -1 -1 -0 -0 -1 4 7 5 2 1 1 1 2 1 2 3 5 7 7 8 6 8 8 9 10 7 8 8 9 5 5 5 3 3 4 4 3 3 3
-0 -0 -0 -0 -1 -1 1 4 -0 -1 -0 6 8 2 3 2 2 2 3 3 3 4 5 6 5 4 7 10 11 8 7 6 5 6 4 5 4 3 3 3 3 3 3 3
-1 -0 -0 -0 -0 -0 3 4 1 0 -0 5 8 7 4 3 3 3 3 2 4 4 5 6 6 6 6 9 11 6 6 6 5 3 4 5 4 4 3 3 2 3 2 2
-0 -0 0 0 -0 0 2 -1 -0 -0 3 4 9 8 6 3 6 7 4 5 4 4 5 5 6 5 6 10 6 6 5 5 5 4 3 4 3 3 3 3 3 3 3 3
-0 -0 1 -1 1 3 2 -1 -0 -1 3 7 7 10 12 4 6 6 5 5 9 4 7 6 6 7 9 7 6 5 4 4 5 4 3 3 4 3 3 3 3 3 3 3
-0 -0 2 4 2 -0 -1 2 4 4 4 4 7 5 10 6 8 8 7 6 9 11 7 5 8 9 5 4 4 4 4 3 3 5 5 4 4 4 4 3 3 3 3 3
1 3 4 1 -1 1 3 6 7 6 8 6 6 6 9 5 10 10 8 10 9 13 9 9 9 9 6 4 4 3 3 3 3 3 3 3 3 3 3 3 3 3 2 3
1 2 1 1 3 4 7 8 6 7 9 5 7 6 6 6 6 10 9 11 10 13 8 11 11 7 5 4 4 3 3 3 3 3 3 3 3 3 3 3 3 2 2 2
0 3 5 5 5 11 10 12 9 9 6 5 6 8 7 6 7 10 11 12 13 8 13 12 10 8 6 5 5 4 3 3 3 3 3 3 3 2 3 3 3 2 2 2
3 6 11 8 9 8 8 9 9 6 6 7 7 7 8 7 9 9 13 10 11 14 16 14 10 8 7 6 5 5 5 5 4 4 3 3 3 3 2 2 2 2 3 2
5 5 11 9 6 5 6 5 5 5 5 5 6 7 7 9 10 10 11 13 15 14 14 11 9 8 7 6 6 6 5 5 4 3 4 3 3 3 3 3 2 3 3 3
4 5 7 5 6 6 5 5 6 4 4 4 4 8 10 11 11 12 13 14 15 14 13 8 7 7 7 7 6 6 5 5 4 5 4 4 4 4 4 3 3 3 2 3
5 6 4 5 5 6 5 5 4 3 5 8 7 11 12 9 12 13 12 14 14 12 8 6 6 6 6 6 6 6 6 5 5 5 4 4 3 3 3 4 3 3 2 2

GFSNW_con_lsi_015.txt.gz
Lid_Strength_Index
-1 -1 -1 -1 -1 -0 0 4 9 2 1 9 9 11 9 7 7 6 7 9 13 14 13 14 13 12 10 7 7 10 9 11 12 11 8 7 9 10 11 13 15 13 14 14
-1 -1 -1 -1 -1 -0 2 6 6 2 2 12 11 9 8 7 8 8 8 9 10 11 13 15 13 11 8 7 8 9 9 11 15 13 11 9 10 9 10 11 12 14 16 14
-1 -1 -1 -1 -1 -1 1 6 10 7 5 6 10 11 10 10 6 7 7 8 7 11 14 13 14 12 9 8 7 7 6 11 12 15 12 10 11 9 9 11 14 13 13 12
-1 -1 -1 -1 -1 -1 1 6 8 7 11 10 9 9 9 10 10 7 7 8 9 11 15 14 15 12 11 9 7 9 9 12 10 10 10 10 9 9 9 10 11 12 11 11
-1 -1 -1 -1 -1 -1 3 8 8 6 8 7 9 9 10 10 9 8 9 9 8 9 12 13 15 13 13 13 11 12 10 11 10 11 9 10 10 9 9 9 9 10 10 10
-1 -1 -1 -1 -1 -1 4 3 3 6 8 9 10 10 9 9 8 7 7 7 8 9 9 9 10 11 11 12 13 13 12 13 11 13 10 11 13 10 9 9 9 9 11 10
-1 -1 -1 -1 -1 -1 1 2 3 7 11 9 9 8 9 9 9 9 7 6 8 6 5 7 9 11 11 11 11 11 13 12 13 13 11 17 11 8 8 9 8 8 8 8
-1 -1 -1 -1 -1 -1 1 1 4 6 10 8 8 8 8 7 7 8 8 6 5 4 6 11 13 14 14 12 11 11 11 12 15 15 14 12 10 8 9 10 10 8 9 7
-0 -1 -1 -1 -1 -1 1 1 1 4 8 9 6 8 8 10 10 9 8 5 4 6 9 12 15 18 15 14 11 9 9 9 13 14 16 16 11 8 7 8 12 7 7 8
-0 -1 -1 -1 -1 -1 1 1 0 3 8 6 6 9 9 7 8 10 8 8 8 7 11 14 15 16 13 16 16 13 12 13 14 15 16 12 8 7 7 13 12 7 7 7
-1 -1 -1 -1 -1 -1 0 2 -0 3 6 6 4 4 7 7 7 11 8 9 9 10 13 13 13 14 14 15 13 13 14 14 15 13 16 16 7 7 11 9 8 6 6 6
-1 -1 -1 -1 -1 -1 -1 3 0 -0 4 5 3 3 2 3 4 7 7 8 9 8 11 11 11 13 12 14 16 10 15 12 14 13 12 8 7 8 6 6 7 6 6 6
-0 -1 -1 -1 -1 -1 -1 1 1 2 5 5 5 5 2 1 2 2 8 7 6 7 6 9 10 13 11 15 14 13 11 10 13 12 10 8 7 6 6 5 6 5 5 5
-0 -1 -1 -1 -1 -0 -1 2 1 2 4 9 7 2 3 1 1 2 3 4 4 5 6 9 10 12 9 12 11 12 11 11 11 11 9 8 8 7 6 6 5 5 5 4
-0 -1 -1 -1 -0 -0 -0 1 1 0 5 9 7 4 2 2 2 3 3 4 5 6 8 9 11 9 9 9 10 12 9 11 12 13 9 9 9 9 5 6 6 6 6 5
-1 -1 -1 -1 -0 -1 1 4 1 0 1 6 10 4 4 3 3 4 5 4 5 6 8 8 7 6 9 12 13 10 9 8 9 11 8 9 8 8 6 6 5 5 5 5
-0 -1 -1 -1 -0 1 3 5 2 1 2 6 9 9 5 3 4 5 5 4 5 6 7 8 8 8 8 10 13 8 8 7 8 8 8 9 8 9 8 5 5 5 5 4
-0 -0 -0 -0 0 1 3 2 0 1 4 4 10 10 8 4 7 8 5 7 7 7 7 7 9 8 8 12 9 7 7 8 8 7 7 8 8 8 8 5 5 5 5 5
1 0 1 1 3 4 3 0 0 2 4 8 8 11 12 5 7 7 7 6 10 6 9 9 8 10 12 9 8 7 8 8 8 6 8 8 8 8 8 8 6 6 5 5
1 1 3 6 3 -0 0 3 5 5 5 6 9 7 11 7 8 9 9 8 10 12 9 7 9 10 7 6 5 6 6 6 7 8 9 8 8 8 7 7 7 5 5 5
2 4 5 2 -1 2 5 8 8 8 9 7 7 7 10 6 10 10 9 11 10 13 11 11 12 12 9 6 6 5 5 6 6 6 7 7 8 7 8 6 6 6 6 6
3 4 2 2 4 6 8 10 8 9 11 8 9 8 7 7 7 11 10 12 11 14 9 12 14 10 8 8 7 7 5 5 6 6 7 7 7 6 6 6 6 6 5 5
1 3 5 6 7 11 12 13 12 11 8 7 7 9 7 7 9 11 12 13 13 10 12 14 12 9 9 9 6 6 5 5 5 6 6 5 5 5 6 6 6 6 6 5
5 7 10 10 11 10 10 10 9 7 7 7 6 8 9 8 10 11 13 11 12 14 15 14 11 10 10 8 7 6 6 5 5 5 5 5 5 5 5 6 6 6 6 5
6 6 11 10 7 6 6 5 6 5 5 6 7 7 8 10 11 11 12 13 14 14 14 12 10 9 9 8 7 6 6 5 5 5 5 4 4 5 5 5 5 5 5 5
4 5 8 7 8 7 6 6 6 4 5 5 6 9 10 11 11 12 13 14 15 13 13 10 7 7 7 7 7 5 5 5 5 5 5 4 4 4 4 4 4 3 3 4
5 8 5 6 6 7 6 5 5 4 6 9 8 11 13 9 12 13 13 13 12 9 8 6 6 6 6 5 6 6 5 5 5 5 5 5 4 4 4 5 4 4 3 3

GFSNW_con_lsi_021.txt.gz
Lid_Strength_Index
-0 -0 -0 -1 -1 -0 3 6 10 3 1 9 8 11 9 7 8 6 8 8 10 12 12 14 15 15 13 10 11 14 12 14 15 13 11 9 10 13 13 14 16 14 15 14
-0 -0 -0 -1 -1 -1 3 6 6 3 2 12 11 9 9 8 9 9 9 9 8 9 12 15 13 13 10 10 12 13 12 14 16 16 13 11 12 12 12 13 13 15 15 14
-0 -0 -1 -1 -1 -1 4 6 10 7 6 7 9 10 10 11 7 8 7 9 8 10 12 12 14 13 12 11 12 9 11 14 14 16 15 12 14 12 12 12 14 14 13 14
-1 -1 -1 -1 -1 -1 4 8 9 7 11 10 9 9 10 11 11 8 8 9 9 10 12 13 14 12 12 11 10 11 14 17 14 12 11 12 11 12 12 12 12 13 12 12
-1 -1 -1 -1 -1 0 6 8 8 6 8 8 9 9 11 11 10 10 10 11 9 9 11 11 13 12 12 13 12 13 14 17 14 14 11 11 13 11 11 11 11 11 11 12
-0 -1 -1 -1 -1 2 5 4 3 6 8 9 12 11 10 10 9 8 8 8 10 10 9 7 8 9 10 11 13 14 14 16 17 17 12 12 15 12 12 11 10 10 12 11
0 -0 -1 -1 -1 0 4 4 4 7 11 10 10 8 8 9 9 10 8 7 10 7 5 5 6 8 10 10 11 11 14 16 16 18 14 18 13 10 10 11 10 9 10 10
0 -0 -0 -1 -1 -1 3 5 4 6 10 9 9 8 9 8 8 9 8 7 6 6 7 11 12 12 13 13 11 12 12 15 18 18 17 14 12 10 11 12 11 9 9 9
0 0 -0 -1 -1 -1 2 5 4 5 9 11 8 9 8 10 9 9 8 6 6 8 9 12 16 16 14 15 12 9 11 13 16 16 19 19 13 9 8 9 12 9 9 9
-0 -0 -0 -1 -1 -1 2 3 3 3 8 6 6 9 9 7 8 10 9 8 8 6 11 14 16 15 12 16 16 15 15 16 17 16 17 14 10 9 8 13 13 9 8 9
0 -0 -0 -1 -1 -1 1 2 3 3 6 6 5 5 7 7 7 10 9 9 9 10 13 13 14 14 13 14 13 15 15 16 17 15 17 18 8 9 13 11 9 8 8 9
0 -0 -0 -1 -1 -1 -0 4 3 2 5 6 5 4 4 4 5 7 7 9 8 8 11 11 11 13 12 13 16 12 15 14 15 14 14 10 9 11 10 9 10 7 7 7
0 0 -0 -1 -1 -1 -0 4 3 4 6 6 8 7 5 4 4 3 8 8 6 7 6 9 10 13 11 15 14 14 12 10 13 13 10 10 10 9 10 9 10 9 6 6
1 0 -0 -0 0 -0 1 4 4 4 6 9 9 5 6 3 3 3 4 6 4 4 5 9 10 12 9 12 11 12 11 11 13 12 11 10 10 10 10 9 9 9 8 6
1 1 1 1 1 1 3 5 5 5 8 11 9 6 5 4 3 4 4 5 8 8 8 9 11 9 10 9 9 11 9 12 13 14 10 11 11 10 9 9 10 9 9 6
1 1 1 1 1 2 7 9 6 5 5 8 12 7 6 5 3 4 4 4 6 6 8 9 8 7 8 12 13 9 9 8 9 10 9 9 9 8 8 10 9 9 7 5
1 1 1 1 1 6 8 9 5 3 5 8 11 11 6 4 4 4 5 4 5 6 7 8 9 9 7 10 13 10 8 7 8 8 8 10 9 10 9 9 9 8 6 6
2 2 1 1 1 4 7 6 3 4 6 7 11 11 9 6 7 8 5 7 7 8 9 9 10 9 9 12 9 8 9 9 7 7 7 9 9 8 8 9 8 9 7 7
2 1 1 4 7 8 6 2 3 6 7 10 11 13 13 7 7 7 7 7 10 9 10 9 8 11 12 9 8 8 8 10 9 8 9 8 9 9 8 9 9 8 7 7
2 4 6 8 6 1 2 6 8 7 7 7 11 9 12 9 8 9 10 9 11 12 10 8 11 13 9 7 6 6 6 7 8 9 8 8 9 9 9 8 9 8 7 7
7 9 8 6 3 6 7 10 11 11 11 9 9 9 10 7 10 11 10 12 12 15 11 11 12 12 9 7 6 5 5 6 7 8 8 9 9 9 9 8 8 8 8 7
8 6 4 5 7 9 10 13 11 12 13 10 10 10 9 8 8 11 11 13 13 15 10 12 14 10 8 8 7 7 6 6 7 7 8 9 8 8 8 7 8 8 8 7
6 6 7 10 10 14 13 14 13 13 11 10 10 12 10 9 10 10 11 15 14 10 13 14 11 9 9 8 7 6 6 5 6 6 6 7 7 7 7 7 7 7 8 7
10 11 16 14 14 14 13 12 11 10 10 10 11 11 11 11 12 11 13 12 12 17 15 14 11 9 8 7 6 6 6 5 5 6 5 5 6 8 6 7 7 7 7 6
11 13 17 15 11 10 9 8 9 9 9 10 10 11 10 13 13 11 12 15 20 15 14 11 9 7 7 7 6 6 6 6 6 6 6 5 5 6 8 7 7 7 5 4
9 11 14 12 12 11 10 10 10 8 9 9 10 12 12 13 12 14 14 14 15 12 11 7 7 7 7 6 6 6 5 6 5 6 6 5 5 5 5 5 7 6 6 6
11 13 11 12 12 12 11 10 9 8 9 11 11 12 13 12 15 16 11 12 11 9 7 7 7 6 6 6 6 6 6 6 5 5 5 5 4 4 4 5 4 4 5 5

GFSNW_con_lsi_024.txt.gz
Lid_Strength_Index
-0 -0 -1 -1 -1 -1 2 5 11 4 1 9 8 12 9 7 8 6 8 8 10 11 11 13 14 14 13 9 10 14 12 15 16 14 12 9 11 13 14 16 18 16 16 16
-0 -1 -1 -1 -1 -1 3 7 8 3 3 12 11 9 9 8 9 9 9 10 9 8 11 14 12 12 9 10 11 13 12 16 18 16 14 12 12 13 13 14 15 16 17 16
-1 -1 -1 -1 -1 -1 5 9 11 8 6 7 9 11 11 11 7 8 8 9 8 10 10 11 13 12 10 9 10 8 10 15 16 17 16 13 14 12 12 14 17 15 14 14
-1 -1 -1 -1 -1 -0 6 9 10 7 11 10 9 9 10 11 11 8 8 10 9 11 13 11 12 11 11 10 9 10 12 18 15 14 13 12 13 12 12 13 13 15 13 13
-0 -0 -1 -1 -1 1 7 10 9 6 8 7 10 10 12 11 10 9 10 11 9 10 12 11 12 11 11 12 10 11 12 18 16 17 12 12 13 12 12 12 12 13 12 13
0 -0 -0 -1 -1 2 7 7 6 6 8 8 12 13 10 10 9 8 8 9 10 11 10 8 7 9 9 10 11 13 13 16 18 19 15 14 15 13 13 12 11 12 13 11
0 0 0 -0 -1 -0 3 4 4 8 11 10 9 9 8 9 8 10 8 7 9 7 6 5 6 9 10 10 10 10 14 15 17 19 16 19 13 10 10 12 11 11 11 10
0 0 -0 -0 -1 -1 2 3 4 6 10 9 9 9 9 8 7 9 8 7 6 6 8 11 13 12 13 11 11 11 12 14 18 19 18 15 13 11 12 13 13 10 10 9
1 1 0 -0 -1 -1 2 3 3 4 9 11 8 8 8 10 10 9 8 6 5 6 10 12 16 17 13 14 13 11 12 13 15 17 19 19 14 10 8 9 15 9 9 9
1 1 0 -0 -0 -1 1 3 3 4 8 7 7 9 9 7 8 10 8 8 8 6 11 14 15 16 11 16 16 15 15 15 17 18 19 15 10 10 9 15 15 10 9 8
1 1 1 0 -0 -0 2 5 4 4 7 8 7 6 8 7 7 10 8 9 9 10 12 13 13 14 13 14 13 14 15 16 17 16 18 19 10 10 13 12 10 9 10 9
2 2 1 1 0 0 1 5 5 4 7 8 6 6 5 6 5 7 7 8 8 8 11 11 12 13 12 13 16 11 15 12 14 14 14 9 9 9 8 9 10 10 10 9
2 2 1 1 1 1 1 5 5 5 7 8 8 8 6 5 5 4 8 7 5 7 5 9 10 13 11 15 14 13 11 10 12 12 10 10 9 8 8 9 10 9 9 9
2 2 1 1 1 1 2 4 4 5 7 10 9 5 6 3 4 4 4 4 4 4 5 8 10 12 9 12 11 12 11 10 12 12 10 10 9 9 9 10 9 10 9 9
2 2 1 2 2 2 4 5 5 5 8 10 9 6 5 3 3 3 4 5 5 6 8 9 11 9 9 9 10 11 10 12 12 13 10 11 11 9 9 10 10 10 10 9
2 2 2 2 2 2 8 10 8 5 5 8 12 8 7 5 4 4 4 4 5 6 8 8 8 8 8 12 13 9 8 8 9 10 8 9 9 8 7 10 9 9 9 7
3 2 2 2 2 7 10 10 6 4 5 9 11 11 7 5 4 4 5 4 5 6 7 8 9 10 9 11 14 9 8 8 8 8 8 9 8 10 8 9 8 9 8 6
4 3 1 2 2 4 8 6 4 4 7 7 12 12 9 6 8 8 6 7 6 7 8 9 10 10 10 13 9 8 7 9 8 9 9 9 8 8 8 8 9 9 9 7
5 3 2 4 7 8 7 2 3 5 8 10 11 13 13 7 8 7 9 8 10 8 10 9 9 11 13 10 8 7 7 9 10 9 10 9 9 9 9 9 9 9 10 8
6 7 8 9 7 2 2 7 9 8 8 7 10 9 12 9 8 9 11 11 11 12 10 8 10 11 8 7 7 7 7 7 8 11 11 10 9 8 8 9 8 9 9 9
11 11 11 7 4 7 9 11 11 11 12 10 9 10 11 7 10 11 10 12 12 14 11 11 12 12 9 6 6 6 6 6 7 8 9 9 10 9 9 9 8 9 9 8
11 10 8 7 9 10 11 14 12 12 13 11 11 11 10 8 9 12 11 13 12 15 10 12 14 10 7 7 6 6 6 5 6 7 8 8 8 8 9 9 8 8 8 8
7 8 10 13 13 16 13 14 13 13 11 10 11 12 11 10 11 12 14 16 14 11 13 13 11 8 7 7 6 5 5 5 6 6 7 7 7 7 7 8 7 8 8 8
11 12 15 15 16 15 15 14 12 10 10 10 11 12 12 12 13 11 15 12 13 20 19 14 10 9 7 7 6 6 6 6 6 6 7 7 6 5 5 5 7 7 8 7
11 13 16 15 12 13 12 11 11 9 9 10 11 11 11 14 13 11 14 15 21 15 15 11 9 8 8 7 7 7 6 6 6 6 7 7 6 5 5 5 7 7 8 6
9 11 14 13 13 13 12 12 12 10 11 10 10 12 13 13 11 16 14 14 18 12 11 9 8 8 8 7 7 7 6 6 5 5 6 6 6 5 4 4 4 6 7 7
10 12 11 12 13 12 12 12 12 11 12 13 12 13 13 13 17 16 11 12 12 10 8 7 7 8 8 7 6 7 6 6 6 5 4 4 4 5 5 5 5 5 5 5

GFSNW_con_lsi_030.txt.gz
Lid_Strength_Index
2 1 1 0 -0 -0 0 2 7 0 -1 7 8 10 8 6 7 5 7 7 8 9 8 9 10 12 11 7 8 11 8 10 13 9 7 7 7 9 9 12 13 11 10 12
3 2 1 1 0 0 1 4 4 -1 1 10 9 7 7 7 7 7 8 8 7 7 9 11 9 9 7 7 8 11 10 11 14 11 8 7 9 8 8 8 8 11 13 12
2 2 1 1 1 0 1 4 8 4 2 5 8 9 8 8 5 7 6 8 7 8 9 7 9 9 8 7 8 7 8 11 11 13 10 9 10 9 8 9 11 11 11 10
3 2 1 1 1 1 1 3 6 5 9 8 8 7 7 8 9 6 6 8 8 9 11 9 9 9 8 8 7 8 8 12 10 9 9 10 9 9 9 10 10 12 10 10
2 2 2 1 1 1 2 5 7 5 7 7 8 7 8 9 8 8 9 8 8 8 10 9 10 8 9 11 9 10 8 13 10 11 9 10 10 9 8 9 9 10 10 9
2 2 2 2 2 2 4 4 3 7 8 8 9 8 8 8 7 7 6 7 8 9 8 6 6 5 6 7 8 9 11 11 12 13 10 10 12 9 8 8 8 8 10 7
2 2 2 2 2 2 2 4 5 9 11 9 9 8 8 8 8 9 7 7 9 6 4 4 5 5 6 6 7 7 10 11 11 12 10 16 10 7 6 7 7 7 7 6
2 2 2 2 2 1 2 2 5 8 11 9 9 8 8 7 7 7 7 6 5 4 6 9 10 9 9 8 8 8 8 10 14 14 13 10 10 9 9 8 9 7 7 5
2 2 2 2 2 2 2 2 3 6 10 9 8 9 8 9 8 8 7 4 3 5 9 10 13 12 11 12 12 8 8 8 13 13 14 15 12 8 6 7 12 7 7 7
2 2 2 2 2 2 2 2 2 6 10 7 7 9 9 7 7 9 7 7 7 6 11 13 12 11 9 13 16 12 12 12 14 14 13 12 8 7 6 13 12 6 6 6
3 2 2 2 2 2 2 3 1 5 8 7 6 6 8 8 8 10 7 7 7 8 12 12 13 13 11 12 13 12 12 14 14 13 14 16 7 7 11 8 6 6 5 5
3 3 2 2 2 2 2 4 2 3 7 6 4 4 4 5 5 6 7 7 8 8 11 10 11 13 12 13 16 10 15 12 13 11 14 8 6 6 5 5 6 5 5 5
5 3 2 2 2 2 2 3 3 4 7 6 4 5 3 2 3 3 8 6 5 6 5 8 10 13 10 14 14 12 9 7 11 10 8 7 7 6 5 5 5 4 4 4
5 4 2 2 3 2 2 3 3 4 6 10 6 2 3 1 2 3 4 4 4 3 5 8 10 11 8 12 11 12 10 9 10 9 7 7 7 7 6 5 4 4 4 3
5 5 3 2 2 2 2 3 3 3 6 8 7 4 2 2 2 3 4 5 5 6 8 8 10 7 7 7 9 10 8 9 11 12 7 7 7 6 6 6 6 5 5 5
5 5 5 3 2 2 2 4 2 2 4 8 10 3 4 3 2 3 4 4 5 5 7 8 6 5 7 10 10 7 6 6 6 7 5 6 6 5 5 6 6 5 5 5
5 5 5 5 3 2 3 4 2 3 4 8 9 7 3 3 3 3 4 3 4 5 6 7 7 7 6 9 10 7 6 6 6 5 5 6 6 6 6 6 6 5 4 4
5 5 5 4 5 4 3 1 3 3 4 6 10 8 6 3 5 6 2 6 5 6 7 6 8 7 8 11 8 7 7 7 7 5 6 5 5 5 6 5 5 6 5 4
5 5 5 4 4 5 4 2 2 2 4 8 9 10 12 3 4 4 5 3 9 4 8 8 8 10 12 9 8 8 7 8 8 7 7 6 6 6 6 6 6 6 6 5
4 4 5 6 5 5 4 4 6 6 5 5 8 5 9 5 6 6 6 4 7 10 8 6 9 11 7 6 5 6 5 5 6 7 7 7 6 6 6 6 5 6 6 6
4 6 7 6 5 6 6 8 8 7 9 6 6 6 8 4 9 9 6 8 6 11 9 10 10 10 7 5 5 5 5 5 5 5 5 5 5 5 5 5 5 5 5 5
5 6 6 7 8 7 9 9 8 8 8 6 7 6 5 5 5 8 7 9 8 12 6 10 11 8 5 5 6 5 5 5 5 4 5 4 4 5 5 5 5 5 4 4
3 7 8 7 6 12 11 13 10 10 7 5 5 6 5 5 5 7 8 12 11 7 10 11 8 6 5 4 4 5 4 5 4 5 4 4 4 4 4 4 4 4 3 3
6 8 11 9 9 8 8 8 8 6 6 6 5 5 7 6 8 7 11 8 8 13 14 13 8 6 5 4 4 4 5 5 5 5 4 5 4 4 3 3 3 3 3 3
8 7 11 8 6 5 4 5 6 6 4 6 6 6 6 7 9 8 9 12 14 12 12 8 6 5 4 4 4 4 4 5 5 4 4 4 4 4 3 3 2 2 3 3
7 6 8 6 6 6 5 5 6 5 5 5 6 7 9 9 8 11 12 13 15 12 10 5 4 4 4 4 3 3 3 4 4 4 4 3 4 4 3 2 2 2 2 3
7 8 5 5 5 6 6 5 5 3 5 8 7 11 11 7 10 12 11 13 10 7 5 3 4 4 4 3 3 3 3 3 3 4 4 3 3 4 4 4 4 4 3 2

GFSNW_con_lsi_033.txt.gz
Lid_Strength_Index
3 2 2 2 1 2 1 2 6 0 -2 7 6 9 7 6 6 5 6 7 8 9 9 9 9 10 9 7 6 10 7 11 14 10 7 6 7 8 8 11 12 10 11 11
3 2 2 2 2 2 2 4 4 0 1 10 9 6 6 6 6 6 6 8 7 6 8 11 9 9 7 6 8 11 8 11 14 14 10 7 8 7 7 8 8 11 12 11
2 2 2 2 2 2 2 3 8 4 2 4 8 8 7 7 5 6 6 6 6 8 8 7 10 8 8 7 7 7 8 11 13 17 12 8 9 8 8 8 11 10 10 10
2 2 2 2 2 2 2 4 6 5 9 8 7 7 8 9 9 6 5 7 7 8 10 9 9 9 8 7 7 8 10 12 11 11 11 10 8 8 8 9 9 10 9 9
2 2 2 2 2 2 2 5 6 5 7 7 8 7 8 9 8 8 8 8 7 7 9 9 11 8 8 10 8 10 9 13 10 11 11 10 9 8 8 8 8 8 8 9
2 2 2 2 2 2 4 4 4 6 8 8 9 8 8 8 7 6 6 7 8 9 8 6 5 5 6 6 8 9 10 12 11 16 12 11 12 9 8 8 7 7 9 8
2 2 2 2 2 2 2 3 4 8 10 9 9 8 7 7 7 8 6 6 8 6 3 4 4 5 6 6 6 6 9 11 11 14 13 19 9 6 6 7 7 6 7 6
3 2 2 2 2 2 3 2 5 7 10 8 8 7 8 6 6 7 6 5 4 3 5 9 9 9 8 7 6 8 7 10 15 16 16 12 11 8 8 8 8 6 6 6
5 3 2 2 2 2 2 2 2 5 10 8 7 8 7 8 8 7 6 4 3 4 8 10 13 14 11 14 11 7 7 7 13 14 18 18 14 7 6 6 12 7 6 6
5 5 3 2 2 2 2 2 1 5 9 6 6 8 8 7 7 8 6 6 6 5 9 12 14 13 9 14 15 11 10 10 14 14 14 13 9 7 6 12 13 6 6 6
5 5 4 3 2 2 2 2 0 4 7 5 4 4 7 8 8 10 6 7 7 8 12 12 12 13 11 13 12 13 12 14 12 12 15 19 7 7 10 8 6 5 5 5
4 5 5 4 2 2 2 4 1 1 5 5 2 1 2 4 5 7 6 7 7 7 10 9 11 13 12 13 16 9 13 11 12 11 13 8 6 7 5 5 6 5 5 4
4 4 5 5 4 2 2 3 3 4 5 5 4 4 2 1 3 2 7 6 5 6 5 8 9 12 10 14 14 12 10 8 10 9 10 8 6 5 4 4 5 4 4 4
4 4 4 4 5 3 2 3 1 3 5 8 5 2 4 1 1 2 3 4 4 5 4 7 8 11 8 11 11 12 10 9 9 10 9 7 6 5 4 4 4 4 3 3
3 4 4 4 5 5 3 2 1 1 5 7 5 2 2 1 1 3 4 5 6 6 7 8 8 6 7 7 8 11 8 9 12 12 8 8 7 4 4 5 4 4 4 4
3 3 4 4 5 5 5 4 0 0 2 7 9 2 3 3 2 2 4 5 5 5 6 7 6 4 7 9 11 8 6 5 5 7 5 5 4 4 4 4 4 4 4 3
3 3 4 4 4 3 4 5 2 1 1 6 8 7 4 2 3 3 4 3 4 5 6 7 7 7 6 9 13 8 6 5 5 4 5 6 5 6 4 4 4 4 4 3
3 3 3 3 3 4 5 3 3 1 3 4 9 8 6 3 6 7 3 5 5 6 6 6 7 7 7 10 7 6 6 6 6 5 5 5 5 4 4 4 4 4 4 3
3 3 3 2 2 4 5 4 4 3 3 7 7 10 12 3 5 5 5 4 8 5 7 7 7 7 10 9 8 7 6 7 6 5 5 5 6 5 5 5 4 5 4 4
3 2 2 4 4 3 4 5 7 7 5 5 7 4 8 4 5 7 7 6 7 10 8 6 8 8 6 5 5 5 5 5 5 7 7 6 6 5 5 5 4 4 4 4
1 3 3 2 3 3 4 8 9 8 9 6 5 5 6 3 8 8 6 8 7 11 9 8 9 9 6 4 5 4 5 5 5 5 5 4 4 5 5 5 5 4 4 4
4 5 4 4 5 6 8 8 7 8 8 6 6 5 4 5 3 7 7 9 8 12 5 9 10 7 5 4 4 4 4 5 5 4 4 4 4 5 5 4 4 4 4 3
3 6 8 7 6 11 10 11 8 8 7 6 6 7 5 5 5 7 8 11 11 7 10 10 8 6 4 4 3 4 4 4 4 4 4 3 4 4 4 3 3 3 3 2
6 6 12 8 9 8 7 7 6 4 5 6 5 7 7 5 8 8 11 9 8 13 14 13 7 5 4 4 3 3 4 4 4 5 4 4 4 4 3 3 2 2 3 3
6 5 11 8 5 4 4 4 4 3 3 4 6 6 6 8 9 8 9 11 14 12 12 7 5 4 4 4 3 3 3 4 4 4 4 4 4 4 4 3 3 2 2 2
5 5 7 5 6 6 5 4 5 3 3 3 5 7 9 9 8 11 12 13 14 12 9 5 4 4 4 3 3 3 3 3 3 4 3 3 4 4 3 3 4 3 3 3
7 7 4 5 5 5 5 4 4 2 4 6 7 9 10 6 9 12 11 13 11 6 4 3 3 4 3 3 3 2 2 3 3 4 3 3 2 3 4 5 4 4 3 3

GFSNW_con_lsi_036.txt.gz
Lid_Strength_Index
2 2 2 2 2 2 3 3 7 1 1 7 7 9 7 5 6 5 6 6 8 10 10 10 10 9 9 7 6 10 8 11 14 11 7 6 7 9 9 12 13 11 11 11
2 2 2 2 2 2 3 5 4 0 1 10 10 7 7 6 6 7 7 7 7 7 9 12 12 10 6 6 7 10 10 12 15 13 10 8 9 8 8 8 9 12 13 12
3 2 2 2 2 2 3 4 8 4 4 5 8 9 8 8 5 6 6 6 6 9 10 7 9 9 8 6 7 7 8 12 13 17 15 13 13 9 8 9 12 11 11 10
4 3 2 2 2 2 3 4 6 5 9 8 8 7 8 9 9 6 5 7 7 9 10 9 10 9 8 6 7 8 10 14 12 11 11 12 13 12 9 9 9 11 10 9
4 4 2 2 2 2 3 5 7 6 7 7 8 8 8 9 8 7 8 9 8 7 10 10 11 9 8 9 8 9 9 15 12 13 11 12 14 11 10 8 8 8 9 9
4 4 4 2 2 2 4 4 4 6 8 7 9 8 8 8 7 6 6 7 8 9 8 6 6 6 6 7 8 9 10 13 14 15 12 13 15 11 10 9 8 8 10 8
4 4 4 3 2 2 3 4 4 7 10 8 8 8 7 8 7 8 6 6 8 6 3 4 5 6 6 6 7 6 10 10 13 16 15 20 11 7 7 8 7 7 7 8
4 4 4 4 3 2 3 3 4 7 10 8 7 8 8 7 6 7 6 6 4 3 5 9 11 12 10 8 7 7 7 10 15 17 17 14 12 10 9 9 9 8 7 7
3 4 4 4 4 2 2 3 2 5 9 8 6 7 7 9 8 7 6 4 3 4 8 10 14 17 13 13 11 6 7 8 13 14 18 20 14 9 7 7 14 7 7 7
3 3 4 4 4 4 3 3 1 5 8 7 6 8 9 6 7 9 7 6 6 5 9 13 15 14 10 15 15 13 10 11 14 15 17 15 10 8 6 14 14 7 6 6
3 2 3 4 4 4 4 3 2 3 7 5 4 4 6 7 7 10 7 7 7 8 11 12 12 12 11 12 11 13 14 14 14 13 16 18 8 8 12 10 7 6 6 6
3 2 3 4 4 4 4 5 1 0 5 6 3 3 2 2 4 6 7 7 7 7 10 9 10 12 12 12 16 9 15 12 14 13 14 9 8 8 6 6 6 6 5 5
2 2 2 3 4 4 5 6 3 3 5 5 4 4 2 0 2 2 8 6 5 6 5 8 9 13 10 14 14 12 9 7 12 12 10 9 8 6 6 5 5 4 5 5
3 2 2 3 3 4 5 6 3 3 5 8 5 1 3 1 1 2 4 5 4 4 5 8 9 11 7 11 11 12 9 9 10 11 9 8 7 6 5 5 4 4 4 4
3 3 2 3 3 4 4 4 3 2 4 8 6 3 2 1 1 3 4 5 6 7 7 8 10 7 8 8 9 11 8 10 11 11 7 7 7 5 5 5 5 4 4 4
3 3 2 3 3 2 3 6 3 2 2 6 9 3 3 2 2 3 4 4 6 6 7 7 6 5 7 10 13 7 6 5 5 8 5 6 5 4 4 5 5 4 4 4
3 3 3 3 3 2 3 5 5 3 3 6 8 7 4 3 3 3 4 3 4 5 6 8 7 7 6 9 11 8 6 5 5 4 5 6 5 6 4 5 4 4 3 4
3 3 3 3 2 2 2 2 4 3 5 5 9 8 6 3 6 7 4 6 5 5 6 6 7 7 7 10 7 6 5 5 6 6 5 5 4 4 4 4 5 4 4 4
4 4 3 2 2 3 3 3 3 2 5 8 8 10 12 3 6 5 5 5 9 5 8 7 6 8 10 8 7 6 5 7 6 6 6 6 6 5 5 4 5 5 4 4
4 3 3 5 3 2 2 3 6 7 7 7 8 5 8 5 5 7 7 6 8 11 8 5 8 10 6 5 4 5 5 5 5 7 7 6 7 6 5 4 4 5 4 4
4 5 4 3 2 2 4 6 8 7 9 7 6 6 7 4 7 8 6 9 7 11 9 9 10 11 7 4 5 4 4 4 4 5 4 4 5 5 6 5 4 4 4 4
6 6 5 4 5 5 8 9 7 8 9 6 6 7 5 5 4 8 7 10 8 12 7 9 11 8 5 4 4 4 4 4 5 4 4 4 4 5 5 4 4 4 4 3
5 7 9 9 7 11 11 11 9 8 6 5 5 7 5 5 5 8 8 11 12 7 11 11 9 6 5 4 4 4 3 3 4 4 4 4 4 4 4 5 3 3 3 3
6 8 11 9 9 8 8 7 7 5 4 4 5 5 6 5 7 8 11 9 9 13 14 12 8 5 5 4 3 4 4 4 4 4 4 4 4 4 3 4 3 3 3 3
7 7 11 8 6 5 4 4 4 4 3 4 5 5 5 7 8 8 10 11 14 13 12 8 6 5 4 4 4 3 4 4 4 4 4 4 4 4 4 4 3 3 3 3
6 7 7 5 6 6 5 5 5 3 3 4 4 6 8 9 9 11 11 13 15 12 9 5 5 5 4 4 3 3 3 3 3 3 4 4 4 4 4 4 4 4 4 4
7 6 5 5 5 6 5 4 4 2 4 7 6 10 10 7 10 12 11 12 10 7 5 4 4 4 4 3 3 3 3 3 3 3 3 3 3 3 4 5 4 4 5 5